Location: Jackson Park
(37.2862°N, 79.9123°W)
Time: 14:52:36
(UTC+00:00)

S-56A Canister/Altair - Pass Details

Date: 13 May 2026
Orbit: 633 x 2484 km, 38.9° (Epoch: 6 June)

Event Time Altitude Azimuth Distance (km) Brightness Sun altitude
Rises 03:31:49 0° 261° (W) 2,915 10.8 -29.2°
Reaches altitude 10° 03:34:01 10° 263° (W) 2,011 9.9 -29.4°
Enters shadow 03:35:11 18° 264° (W) 1,546 9.3 -29.5°
Maximum altitude 03:38:28 82° 350° (N) 696 - -29.8°
Drops below altitude 10° 03:43:52 10° 79° (E) 2,432 - -30.3°
Sets 03:46:46 0° 80° (E) 3,591 - -30.5°
